| time (UTC) | temp F | wind direction | speed MPH | gust MPH | rain 1hr in | rain 24hr in | rain mn in | humidity % | barometer mb |
| 20260503002037 | 74 | 0 | 0.0 | 0.0 | 0.00 | 0.00 | 0.00 | 41 | 1021.2 |
| 20260503001608 | 74 | 0 | 0.0 | 1.0 | 0.00 | 0.00 | 0.00 | 42 | 1021.3 |
| 20260503001039 | 74 | 0 | 0.0 | 2.0 | 0.00 | 0.00 | 0.00 | 41 | 1021.5 |
| 20260503000538 | 74 | 0 | 0.0 | 2.0 | 0.00 | 0.00 | 0.00 | 42 | 1021.5 |
| 20260503000109 | 74 | 0 | 1.0 | 6.0 | 0.00 | 0.00 | 0.00 | 41 | 1021.4 |
| 20260502235537 | 74 | 11 | 1.0 | 6.0 | 0.00 | 0.00 | 0.00 | 40 | 1021.6 |
| 20260502235039 | 74 | 17 | 0.0 | 6.0 | 0.00 | 0.00 | 0.00 | 40 | 1021.6 |
| 20260502234556 | 75 | 46 | 1.0 | 3.0 | 0.00 | 0.00 | 0.00 | 40 | 1021.4 |
| 20260502234039 | 75 | 0 | 0.0 | 3.0 | 0.00 | 0.00 | 0.00 | 41 | 1021.4 |
| 20260502233539 | 75 | 0 | 0.0 | 3.0 | 0.00 | 0.00 | 0.00 | 40 | 1021.4 |
| 20260502233051 | 75 | 0 | 0.0 | 3.0 | 0.00 | 0.00 | 0.00 | 41 | 1021.5 |
| 20260502232538 | 75 | 0 | 0.0 | 3.0 | 0.00 | 0.00 | 0.00 | 39 | 1021.4 |
| 20260502232038 | 75 | 0 | 0.0 | 1.0 | 0.00 | 0.00 | 0.00 | 40 | 1021.5 |
| 20260502231548 | 75 | 0 | 0.0 | 1.0 | 0.00 | 0.00 | 0.00 | 40 | 1021.5 |
| 20260502231038 | 75 | 0 | 0.0 | 4.0 | 0.00 | 0.00 | 0.00 | 39 | 1021.5 |
| 20260502230538 | 75 | 0 | 1.0 | 4.0 | 0.00 | 0.00 | 0.00 | 40 | 1021.6 |
| 20260502230048 | 75 | 25 | 0.0 | 7.0 | 0.00 | 0.00 | 0.00 | 41 | 1021.7 |
| 20260502225538 | 75 | 42 | 2.0 | 7.0 | 0.00 | 0.00 | 0.00 | 40 | 1021.6 |
| 20260502225039 | 75 | 16 | 0.0 | 7.0 | 0.00 | 0.00 | 0.00 | 41 | 1021.6 |
| 20260502224552 | 75 | 1 | 3.0 | 9.0 | 0.00 | 0.00 | 0.00 | 39 | 1021.5 |
| 20260502224038 | 75 | 15 | 2.0 | 9.0 | 0.00 | 0.00 | 0.00 | 43 | 1021.3 |
| 20260502223539 | 75 | 23 | 1.0 | 3.0 | 0.00 | 0.00 | 0.00 | 41 | 1021.3 |
| 20260502223045 | 75 | 9 | 0.0 | 3.0 | 0.00 | 0.00 | 0.00 | 40 | 1021.3 |
| 20260502222539 | 75 | 0 | 0.0 | 6.0 | 0.00 | 0.00 | 0.00 | 40 | 1021.3 |
| 20260502222038 | 75 | 25 | 2.0 | 6.0 | 0.00 | 0.00 | 0.00 | 42 | 1021.4 |
| 20260502221542 | 75 | 10 | 2.0 | 5.0 | 0.00 | 0.00 | 0.00 | 42 | 1021.5 |
| 20260502221038 | 75 | 0 | 0.0 | 6.0 | 0.00 | 0.00 | 0.00 | 41 | 1021.4 |
| 20260502220539 | 75 | 0 | 1.0 | 6.0 | 0.00 | 0.00 | 0.00 | 39 | 1021.5 |
| 20260502220050 | 75 | 44 | 0.0 | 7.0 | 0.00 | 0.00 | 0.00 | 40 | 1021.5 |
| 20260502215539 | 75 | 37 | 2.0 | 7.0 | 0.00 | 0.00 | 0.00 | 41 | 1021.5 |
| 20260502215038 | 75 | 27 | 3.0 | 6.0 | 0.00 | 0.00 | 0.00 | 41 | 1021.6 |
| 20260502214556 | 75 | 4 | 2.0 | 6.0 | 0.00 | 0.00 | 0.00 | 43 | 1021.6 |
| 20260502214038 | 74 | 37 | 3.0 | 6.0 | 0.00 | 0.00 | 0.00 | 42 | 1021.6 |
| 20260502213538 | 74 | 33 | 2.0 | 5.0 | 0.00 | 0.00 | 0.00 | 42 | 1021.7 |
| 20260502213048 | 75 | 22 | 2.0 | 7.0 | 0.00 | 0.00 | 0.00 | 40 | 1021.7 |
| 20260502212538 | 75 | 5 | 2.0 | 7.0 | 0.00 | 0.00 | 0.00 | 40 | 1021.7 |
| 20260502212039 | 75 | 350 | 0.0 | 4.0 | 0.00 | 0.00 | 0.00 | 42 | 1021.8 |
| 20260502211547 | 74 | 0 | 2.0 | 7.0 | 0.00 | 0.00 | 0.00 | 40 | 1021.9 |
| 20260502211042 | 74 | 0 | 3.0 | 7.0 | 0.00 | 0.00 | 0.00 | 39 | 1021.9 |
| 20260502210539 | 75 | 4 | 2.0 | 7.0 | 0.00 | 0.00 | 0.00 | 41 | 1022.0 |
| 20260502210049 | 75 | 6 | 0.0 | 7.0 | 0.00 | 0.00 | 0.00 | 42 | 1022.1 |
| 20260502205537 | 74 | 20 | 2.0 | 7.0 | 0.00 | 0.02 | 0.00 | 42 | 1022.3 |
| 20260502205039 | 74 | 35 | 2.0 | 8.0 | 0.00 | 0.02 | 0.00 | 43 | 1022.3 |
| 20260502204551 | 74 | 114 | 2.0 | 8.0 | 0.00 | 0.02 | 0.00 | 42 | 1022.3 |
| 20260502204040 | 74 | 35 | 2.0 | 7.0 | 0.00 | 0.02 | 0.00 | 41 | 1022.6 |
| 20260502203539 | 74 | 20 | 3.0 | 7.0 | 0.00 | 0.02 | 0.00 | 41 | 1022.5 |
| 20260502203051 | 75 | 359 | 2.0 | 6.0 | 0.00 | 0.02 | 0.00 | 42 | 1022.4 |
| 20260502202540 | 74 | 7 | 2.0 | 6.0 | 0.00 | 0.02 | 0.00 | 44 | 1022.6 |
| 20260502202041 | 75 | 0 | 1.0 | 6.0 | 0.00 | 0.02 | 0.00 | 44 | 1022.5 |
| 20260502201547 | 74 | 37 | 2.0 | 5.0 | 0.00 | 0.02 | 0.00 | 45 | 1022.7 |
| 20260502201042 | 74 | 316 | 2.0 | 9.0 | 0.00 | 0.02 | 0.00 | 41 | 1022.7 |
| 20260502200539 | 74 | 9 | 3.0 | 9.0 | 0.00 | 0.02 | 0.00 | 43 | 1022.9 |
| 20260502200050 | 73 | 354 | 1.0 | 6.0 | 0.00 | 0.02 | 0.00 | 46 | 1022.8 |
| 20260502195538 | 73 | 346 | 3.0 | 7.0 | 0.00 | 0.02 | 0.00 | 44 | 1022.8 |
| 20260502195038 | 73 | 29 | 3.0 | 7.0 | 0.00 | 0.02 | 0.00 | 45 | 1023.0 |
| 20260502194556 | 73 | 50 | 1.0 | 7.0 | 0.00 | 0.02 | 0.00 | 45 | 1022.8 |
| 20260502194039 | 73 | 0 | 2.0 | 5.0 | 0.00 | 0.02 | 0.00 | 45 | 1022.8 |
| 20260502193540 | 73 | 0 | 2.0 | 5.0 | 0.00 | 0.02 | 0.00 | 47 | 1022.8 |
| 20260502193047 | 73 | 347 | 2.0 | 11.0 | 0.00 | 0.02 | 0.00 | 46 | 1023.0 |
| 20260502192540 | 73 | 10 | 4.0 | 11.0 | 0.00 | 0.02 | 0.00 | 45 | 1023.0 |
| 20260502192039 | 73 | 34 | 2.0 | 6.0 | 0.00 | 0.02 | 0.00 | 48 | 1023.0 |
| 20260502191553 | 73 | 0 | 0.0 | 7.0 | 0.00 | 0.02 | 0.00 | 50 | 1023.0 |
| 20260502191038 | 72 | 13 | 3.0 | 7.0 | 0.00 | 0.02 | 0.00 | 49 | 1023.0 |
| 20260502190540 | 72 | 18 | 1.0 | 6.0 | 0.00 | 0.02 | 0.00 | 50 | 1023.0 |
| 20260502190051 | 72 | 4 | 3.0 | 8.0 | 0.00 | 0.02 | 0.00 | 47 | 1023.1 |
| 20260502185540 | 72 | 359 | 3.0 | 8.0 | 0.00 | 0.02 | 0.00 | 48 | 1023.1 |
| 20260502185040 | 72 | 27 | 2.0 | 8.0 | 0.00 | 0.02 | 0.00 | 48 | 1023.2 |
| 20260502184551 | 72 | 0 | 0.0 | 8.0 | 0.00 | 0.02 | 0.00 | 48 | 1023.3 |
| 20260502184040 | 72 | 353 | 3.0 | 10.0 | 0.00 | 0.02 | 0.00 | 52 | 1023.5 |
| 20260502183540 | 71 | 23 | 4.0 | 10.0 | 0.00 | 0.02 | 0.00 | 50 | 1023.6 |
| 20260502183047 | 71 | 357 | 2.0 | 9.0 | 0.00 | 0.02 | 0.00 | 52 | 1023.6 |
| 20260502182539 | 71 | 53 | 2.0 | 9.0 | 0.00 | 0.02 | 0.00 | 51 | 1023.7 |
| 20260502182040 | 71 | 48 | 3.0 | 9.0 | 0.00 | 0.02 | 0.00 | 51 | 1023.7 |
| 20260502181553 | 70 | 41 | 4.0 | 11.0 | 0.00 | 0.02 | 0.00 | 50 | 1023.6 |
| 20260502181040 | 70 | 44 | 4.0 | 11.0 | 0.00 | 0.02 | 0.00 | 49 | 1023.8 |
| 20260502180539 | 70 | 32 | 4.0 | 9.0 | 0.00 | 0.02 | 0.00 | 52 | 1023.8 |
| 20260502164040 | 68 | 320 | 3.0 | 9.0 | 0.00 | 0.04 | 0.00 | 54 | 1024.7 |
| 20260502163540 | 68 | 13 | 2.0 | 6.0 | 0.00 | 0.04 | 0.00 | 53 | 1024.7 |
| 20260502163053 | 68 | 37 | 3.0 | 7.0 | 0.00 | 0.04 | 0.00 | 53 | 1024.6 |
| 20260502162541 | 67 | 13 | 3.0 | 7.0 | 0.00 | 0.04 | 0.00 | 55 | 1024.7 |
| 20260502162042 | 68 | 18 | 0.0 | 6.0 | 0.00 | 0.04 | 0.00 | 56 | 1024.7 |
| 20260502161546 | 67 | 13 | 2.0 | 7.0 | 0.00 | 0.04 | 0.00 | 57 | 1024.7 |
| 20260502161039 | 66 | 5 | 3.0 | 7.0 | 0.00 | 0.04 | 0.00 | 56 | 1024.7 |
| 20260502160539 | 66 | 329 | 3.0 | 7.0 | 0.00 | 0.04 | 0.00 | 59 | 1024.6 |
| 20260502152039 | 64 | 23 | 2.0 | 5.0 | 0.00 | 0.04 | 0.00 | 62 | 1024.5 |
| 20260502151557 | 63 | 0 | 2.0 | 5.0 | 0.00 | 0.04 | 0.00 | 63 | 1024.5 |
| 20260502151041 | 63 | 6 | 2.0 | 8.0 | 0.00 | 0.04 | 0.00 | 63 | 1024.2 |
| 20260502150539 | 63 | 24 | 2.0 | 8.0 | 0.00 | 0.04 | 0.00 | 63 | 1024.4 |
| 20260502130542 | 0 | 0.0 | 0.0 | 0.00 | 0.04 | 0.00 | 1023.1 | ||
| 20260502123541 | 0 | 0.0 | 0.0 | 0.00 | 0.04 | 0.00 | 1022.5 | ||
| 20260502123051 | 0 | 0.0 | 0.0 | 0.00 | 0.04 | 0.00 | 1022.5 | ||
| 20260502122539 | 0 | 0.0 | 0.0 | 0.00 | 0.04 | 0.00 | 1022.4 | ||
| 20260502122038 | 0 | 0.0 | 0.0 | 0.00 | 0.04 | 0.00 | 1022.2 | ||
| 20260502121550 | 0 | 0.0 | 0.0 | 0.00 | 0.04 | 0.00 | 1022.0 | ||
| 20260502121038 | 0 | 0.0 | 0.0 | 0.00 | 0.04 | 0.00 | 1022.0 | ||
| 20260502120539 | 0 | 0.0 | 0.0 | 0.00 | 0.04 | 0.00 | 1022.0 | ||
| 20260502115539 | 0 | 0.0 | 0.0 | 0.00 | 0.04 | 0.00 | 1022.0 | ||
| 20260502115039 | 0 | 0.0 | 0.0 | 0.00 | 0.04 | 0.00 | 1021.9 | ||
| 20260502114543 | 0 | 0.0 | 0.0 | 0.00 | 0.04 | 0.00 | 1021.8 | ||
| 20260502114039 | 0 | 0.0 | 0.0 | 0.00 | 0.04 | 0.00 | 1021.7 | ||
| 20260502113539 | 0 | 0.0 | 0.0 | 0.00 | 0.04 | 0.00 | 1021.7 | ||
| 20260502113052 | 0 | 0.0 | 0.0 | 0.00 | 0.04 | 0.00 | 1021.7 | ||
| 20260502112538 | 0 | 0.0 | 0.0 | 0.00 | 0.04 | 0.00 | 1021.6 | ||
| 20260502112038 | 0 | 0.0 | 0.0 | 0.00 | 0.04 | 0.00 | 1021.5 | ||
| 20260502111553 | 0 | 0.0 | 0.0 | 0.00 | 0.04 | 0.00 | 1021.5 | ||
| 20260502111042 | 0 | 0.0 | 0.0 | 0.00 | 0.04 | 0.00 | 1021.4 | ||
| 20260502110539 | 0 | 0.0 | 0.0 | 0.00 | 0.04 | 0.00 | 1021.7 | ||
| 20260502110049 | 0 | 0.0 | 0.0 | 0.00 | 0.04 | 0.00 | 1021.5 | ||
| 20260502105539 | 0 | 0.0 | 0.0 | 0.00 | 0.04 | 0.00 | 1021.5 | ||
| 20260502105039 | 0 | 0.0 | 0.0 | 0.00 | 0.04 | 0.00 | 1021.4 | ||
| 20260502104545 | 0 | 0.0 | 0.0 | 0.00 | 0.04 | 0.00 | 1021.4 | ||
| 20260502104041 | 0 | 0.0 | 0.0 | 0.00 | 0.04 | 0.00 | 1021.5 | ||
| 20260502103542 | 0 | 0.0 | 0.0 | 0.00 | 0.04 | 0.00 | 1021.4 | ||
| 20260502103043 | 0 | 0.0 | 0.0 | 0.00 | 0.04 | 0.00 | 1021.4 | ||
| 20260502102539 | 0 | 0.0 | 0.0 | 0.00 | 0.04 | 0.00 | 1021.4 | ||
| 20260502102044 | 0 | 0.0 | 0.0 | 0.00 | 0.04 | 0.00 | 1021.4 | ||
| 20260502101558 | 0 | 0.0 | 0.0 | 0.00 | 0.04 | 0.00 | 1021.5 | ||
| 20260502101039 | 0 | 0.0 | 0.0 | 0.00 | 0.04 | 0.00 | 1021.4 | ||
| 20260502100541 | 0 | 0.0 | 0.0 | 0.00 | 0.04 | 0.00 | 1021.3 | ||
| 20260502100113 | 0 | 0.0 | 0.0 | 0.00 | 0.04 | 0.00 | 1021.2 | ||
| 20260502091043 | 52 | 0 | 0.0 | 0.0 | 0.00 | 0.05 | 0.00 | 87 | 1020.3 |
| 20260502090538 | 52 | 0 | 0.0 | 0.0 | 0.00 | 0.05 | 0.00 | 87 | 1020.4 |
| 20260502071041 | 53 | 0 | 0.0 | 4.0 | 0.00 | 0.49 | 0.00 | 86 | 1019.6 |
| 20260502070539 | 53 | 0 | 0.0 | 4.0 | 0.00 | 0.49 | 0.00 | 86 | 1019.7 |
| 20260502070052 | 54 | 0 | 0.0 | 4.0 | 0.00 | 0.49 | 0.00 | 86 | 1019.8 |
| 20260502065539 | 54 | 0 | 0.0 | 0.0 | 0.00 | 1.01 | 0.00 | 86 | 1019.8 |
| 20260502065038 | 54 | 0 | 0.0 | 3.0 | 0.00 | 1.01 | 0.00 | 86 | 1019.9 |
| 20260502064553 | 54 | 0 | 0.0 | 4.0 | 0.00 | 1.01 | 0.00 | 85 | 1019.9 |
| 20260502064038 | 54 | 0 | 0.0 | 4.0 | 0.00 | 1.01 | 0.00 | 85 | 1019.8 |
| 20260502063538 | 54 | 0 | 0.0 | 3.0 | 0.00 | 1.01 | 0.00 | 85 | 1019.9 |
| 20260502063050 | 54 | 0 | 0.0 | 3.0 | 0.00 | 1.01 | 0.00 | 85 | 1019.8 |
| 20260502062538 | 54 | 0 | 0.0 | 3.0 | 0.00 | 1.01 | 0.00 | 85 | 1019.7 |
| 20260502062037 | 54 | 20 | 0.0 | 4.0 | 0.00 | 1.01 | 0.00 | 85 | 1019.6 |
| 20260502061553 | 54 | 359 | 1.0 | 4.0 | 0.00 | 1.01 | 0.00 | 85 | 1019.6 |
| 20260502061038 | 54 | 0 | 0.0 | 2.0 | 0.00 | 1.01 | 0.00 | 84 | 1019.8 |
| 20260502060539 | 54 | 0 | 0.0 | 4.0 | 0.00 | 1.01 | 0.00 | 84 | 1019.9 |
| 20260502060050 | 54 | 0 | 0.0 | 4.0 | 0.00 | 1.01 | 0.00 | 84 | 1019.8 |
| 20260502055539 | 54 | 18 | 1.0 | 3.0 | 0.00 | 1.09 | 0.00 | 84 | 1019.9 |
| 20260502055039 | 54 | 3 | 1.0 | 4.0 | 0.00 | 1.09 | 0.00 | 83 | 1019.9 |
| 20260502054548 | 54 | 0 | 0.0 | 5.0 | 0.00 | 1.09 | 0.00 | 83 | 1020.1 |
| 20260502054038 | 55 | 18 | 1.0 | 7.0 | 0.00 | 1.09 | 0.00 | 83 | 1020.0 |
| 20260502053538 | 55 | 0 | 0.0 | 7.0 | 0.00 | 1.09 | 0.00 | 84 | 1019.8 |
| 20260502053052 | 55 | 10 | 3.0 | 7.0 | 0.00 | 1.09 | 0.00 | 83 | 1019.7 |
| 20260502052538 | 55 | 13 | 0.0 | 6.0 | 0.00 | 1.09 | 0.00 | 84 | 1019.7 |
| 20260502052040 | 55 | 20 | 1.0 | 6.0 | 0.00 | 1.09 | 0.00 | 84 | 1019.6 |
| 20260502051545 | 55 | 23 | 2.0 | 8.0 | 0.00 | 1.09 | 0.00 | 84 | 1019.2 |
| 20260502051039 | 55 | 345 | 3.0 | 8.0 | 0.00 | 1.09 | 0.00 | 84 | 1018.8 |
| 20260502050539 | 55 | 359 | 4.0 | 8.0 | 0.00 | 1.09 | 0.00 | 84 | 1018.6 |
| 20260502050043 | 55 | 32 | 2.0 | 7.0 | 0.00 | 1.09 | 0.00 | 84 | 1019.2 |
| 20260502045542 | 55 | 25 | 2.0 | 8.0 | 0.00 | 1.09 | 1.09 | 84 | 1019.7 |
| 20260502045038 | 55 | 76 | 3.0 | 8.0 | 0.00 | 1.09 | 1.09 | 83 | 1019.8 |
| 20260502044548 | 55 | 27 | 0.0 | 6.0 | 0.00 | 1.09 | 1.09 | 84 | 1019.8 |
| 20260502044038 | 55 | 17 | 0.0 | 6.0 | 0.00 | 1.09 | 1.09 | 84 | 1019.7 |
| 20260502043538 | 55 | 30 | 3.0 | 6.0 | 0.00 | 1.09 | 1.09 | 84 | 1019.6 |
| 20260502043058 | 55 | 7 | 2.0 | 5.0 | 0.00 | 1.09 | 1.09 | 84 | 1019.6 |
| 20260502042539 | 55 | 0 | 1.0 | 5.0 | 0.00 | 1.09 | 1.09 | 85 | 1019.4 |
| 20260502042037 | 55 | 0 | 3.0 | 7.0 | 0.00 | 1.09 | 1.09 | 85 | 1019.2 |
| 20260502041552 | 55 | 352 | 2.0 | 7.0 | 0.00 | 1.09 | 1.09 | 86 | 1019.4 |
| 20260502041039 | 55 | 10 | 4.0 | 7.0 | 0.00 | 1.09 | 1.09 | 85 | 1019.4 |
| 20260502040542 | 55 | 8 | 1.0 | 6.0 | 0.00 | 1.09 | 1.09 | 86 | 1019.4 |
| 20260502040046 | 55 | 0 | 0.0 | 8.0 | 0.00 | 1.09 | 1.09 | 85 | 1019.6 |
| 20260502035539 | 55 | 0 | 2.0 | 8.0 | 0.00 | 1.11 | 1.09 | 85 | 1019.6 |
| 20260502035041 | 55 | 6 | 2.0 | 8.0 | 0.00 | 1.11 | 1.09 | 85 | 1019.5 |
| 20260502034549 | 55 | 11 | 3.0 | 8.0 | 0.00 | 1.11 | 1.09 | 84 | 1019.6 |
| 20260502034038 | 55 | 304 | 2.0 | 8.0 | 0.00 | 1.11 | 1.09 | 84 | 1019.5 |
| 20260502033538 | 55 | 34 | 3.0 | 8.0 | 0.00 | 1.11 | 1.09 | 84 | 1019.4 |
| 20260502033049 | 55 | 11 | 3.0 | 7.0 | 0.00 | 1.11 | 1.09 | 84 | 1019.4 |
| 20260502032538 | 55 | 31 | 3.0 | 11.0 | 0.00 | 1.11 | 1.09 | 84 | 1019.3 |
| 20260502032038 | 55 | 8 | 3.0 | 11.0 | 0.00 | 1.11 | 1.09 | 84 | 1019.2 |
| 20260502031550 | 55 | 27 | 1.0 | 6.0 | 0.00 | 1.11 | 1.09 | 84 | 1019.1 |
| 20260502031039 | 55 | 4 | 2.0 | 9.0 | 0.00 | 1.11 | 1.09 | 85 | 1019.1 |
| 20260502030538 | 55 | 0 | 3.0 | 9.0 | 0.00 | 1.11 | 1.09 | 84 | 1018.9 |
| 20260502030050 | 55 | 4 | 3.0 | 9.0 | 0.00 | 1.11 | 1.09 | 84 | 1018.8 |
| 20260502025539 | 55 | 0 | 2.0 | 8.0 | 0.00 | 1.11 | 1.09 | 85 | 1018.7 |
| 20260502025041 | 56 | 11 | 3.0 | 8.0 | 0.00 | 1.11 | 1.09 | 85 | 1018.5 |
| 20260502024550 | 56 | 15 | 2.0 | 8.0 | 0.00 | 1.11 | 1.09 | 85 | 1018.4 |
| 20260502024039 | 56 | 339 | 2.0 | 8.0 | 0.00 | 1.11 | 1.09 | 85 | 1018.5 |
| 20260502023542 | 56 | 23 | 3.0 | 9.0 | 0.00 | 1.11 | 1.09 | 84 | 1018.5 |
| 20260502023044 | 56 | 23 | 3.0 | 10.0 | 0.00 | 1.11 | 1.09 | 85 | 1018.3 |
| 20260502022539 | 56 | 6 | 3.0 | 10.0 | 0.00 | 1.11 | 1.09 | 86 | 1018.2 |
| 20260502022038 | 56 | 34 | 1.0 | 7.0 | 0.00 | 1.11 | 1.09 | 86 | 1018.1 |
| 20260502021552 | 56 | 0 | 2.0 | 7.0 | 0.00 | 1.11 | 1.09 | 87 | 1018.1 |
| 20260502021038 | 56 | 10 | 4.0 | 7.0 | 0.00 | 1.11 | 1.09 | 87 | 1017.9 |
| 20260502020538 | 57 | 14 | 4.0 | 7.0 | 0.00 | 1.11 | 1.09 | 86 | 1017.9 |
| 20260502020046 | 57 | 25 | 3.0 | 7.0 | 0.00 | 1.11 | 1.09 | 86 | 1017.8 |
| 20260502015542 | 57 | 65 | 3.0 | 9.0 | 0.00 | 1.11 | 1.09 | 87 | 1017.7 |
| 20260502015041 | 57 | 46 | 3.0 | 9.0 | 0.00 | 1.11 | 1.09 | 86 | 1017.5 |
| 20260502014543 | 57 | 12 | 3.0 | 9.0 | 0.00 | 1.11 | 1.09 | 86 | 1017.3 |
| 20260502014039 | 58 | 6 | 4.0 | 9.0 | 0.00 | 1.11 | 1.09 | 86 | 1017.4 |
| 20260502013539 | 58 | 359 | 3.0 | 6.0 | 0.00 | 1.11 | 1.09 | 87 | 1017.3 |
| 20260502013043 | 58 | 0 | 1.0 | 7.0 | 0.00 | 1.11 | 1.09 | 87 | 1017.1 |
| 20260502012539 | 58 | 0 | 3.0 | 12.0 | 0.00 | 1.11 | 1.09 | 86 | 1017.1 |
| 20260502012044 | 58 | 11 | 5.0 | 12.0 | 0.00 | 1.11 | 1.09 | 86 | 1016.9 |
| 20260502011546 | 58 | 9 | 2.0 | 8.0 | 0.00 | 1.11 | 1.09 | 86 | 1016.9 |
| 20260502011041 | 58 | 20 | 2.0 | 7.0 | 0.00 | 1.11 | 1.09 | 86 | 1016.8 |
| 20260502010540 | 58 | 28 | 2.0 | 7.0 | 0.00 | 1.11 | 1.09 | 86 | 1016.6 |
| 20260502010101 | 59 | 14 | 2.0 | 8.0 | 0.00 | 1.11 | 1.09 | 85 | 1016.5 |
| 20260502005540 | 59 | 21 | 3.0 | 14.0 | 0.00 | 1.11 | 1.09 | 85 | 1016.4 |
| 20260502005039 | 59 | 359 | 3.0 | 14.0 | 0.00 | 1.11 | 1.09 | 85 | 1016.4 |
| 20260502004553 | 59 | 11 | 2.0 | 11.0 | 0.00 | 1.11 | 1.09 | 85 | 1016.4 |
| 20260502004039 | 59 | 33 | 4.0 | 11.0 | 0.00 | 1.11 | 1.09 | 84 | 1016.3 |
| 20260502003538 | 59 | 37 | 3.0 | 10.0 | 0.00 | 1.11 | 1.09 | 84 | 1016.1 |
| 20260502003053 | 59 | 23 | 3.0 | 7.0 | 0.00 | 1.11 | 1.09 | 84 | 1016.1 |
| 20260502002538 | 59 | 11 | 3.0 | 7.0 | 0.00 | 1.11 | 1.09 | 84 | 1016.0 |